Time,TemperatureF,DewpointF,PressureIn,WindDirection,WindDirectionDegrees,WindSpeedMPH,WindSpeedGustMPH,Humidity,HourlyPrecipIn,Conditions,Clouds,dailyrainin,SoftwareType,DateUTC
2013-08-27 00:01:00,75.8,71.3,29.76,SW,224,0.0,0.0,86,0.00,,---,0.00,VWS V14.01,2013-08-27 05:01:00,
2013-08-27 00:11:00,75.8,71.3,29.76,SW,225,0.0,0.0,86,0.00,,---,0.00,VWS V14.01,2013-08-27 05:11:00,
2013-08-27 00:21:00,75.6,71.1,29.76,SW,224,0.0,0.0,86,0.00,,---,0.00,VWS V14.01,2013-08-27 05:21:00,
2013-08-27 00:26:00,75.6,71.1,29.76,SW,224,0.0,0.0,86,0.00,,---,0.00,VWS V14.01,2013-08-27 05:26:00,
2013-08-27 00:31:00,75.4,70.9,29.76,SW,221,0.0,0.0,86,0.00,,---,0.00,VWS V14.01,2013-08-27 05:31:00,
2013-08-27 00:36:00,75.4,70.9,29.76,SW,219,0.0,0.0,86,0.00,,---,0.00,VWS V14.01,2013-08-27 05:36:00,
2013-08-27 00:41:00,75.4,71.3,29.76,SW,223,0.0,0.0,87,0.00,,---,0.00,VWS V14.01,2013-08-27 05:41:00,
2013-08-27 00:46:00,75.3,71.2,29.77,SW,224,0.0,0.0,87,0.00,,---,0.00,VWS V14.01,2013-08-27 05:46:00,
2013-08-27 00:51:00,75.1,71.0,29.76,SW,225,0.0,0.0,87,0.00,,---,0.00,VWS V14.01,2013-08-27 05:51:00,
2013-08-27 00:56:00,75.1,71.0,29.76,SW,226,0.0,0.0,87,0.00,,---,0.00,VWS V14.01,2013-08-27 05:56:00,
2013-08-27 01:01:00,75.1,71.0,29.76,SW,223,0.0,0.0,87,0.00,,---,0.00,VWS V14.01,2013-08-27 06:01:00,
2013-08-27 01:06:00,74.9,70.8,29.76,SW,225,0.0,0.0,87,0.00,,---,0.00,VWS V14.01,2013-08-27 06:06:00,
2013-08-27 01:11:00,74.9,70.8,29.76,SW,225,0.0,0.0,87,0.00,,---,0.00,VWS V14.01,2013-08-27 06:11:00,
2013-08-27 01:21:00,74.6,70.5,29.76,SW,226,0.0,0.0,87,0.00,,---,0.00,VWS V14.01,2013-08-27 06:21:00,
2013-08-27 01:26:00,74.4,70.3,29.76,SW,225,0.0,0.0,87,0.00,,---,0.00,VWS V14.01,2013-08-27 06:26:00,
2013-08-27 01:31:00,74.4,70.3,29.76,SW,226,0.0,0.0,87,0.00,,---,0.00,VWS V14.01,2013-08-27 06:31:00,
2013-08-27 01:41:00,74.2,70.1,29.76,SW,223,0.0,0.0,87,0.00,,---,0.00,VWS V14.01,2013-08-27 06:41:00,
2013-08-27 01:46:00,74.2,70.4,29.75,SW,222,0.0,0.0,88,0.00,,---,0.00,VWS V14.01,2013-08-27 06:46:00,
2013-08-27 01:51:00,74.0,70.2,29.75,SW,224,0.0,0.0,88,0.00,,---,0.00,VWS V14.01,2013-08-27 06:51:00,
2013-08-27 01:56:00,74.0,70.2,29.75,SW,226,0.0,0.0,88,0.00,,---,0.00,VWS V14.01,2013-08-27 06:56:00,
2013-08-27 02:01:00,74.0,70.2,29.75,SW,226,0.0,0.0,88,0.00,,---,0.00,VWS V14.01,2013-08-27 07:01:00,
2013-08-27 02:11:00,73.9,70.1,29.75,SW,223,0.0,0.0,88,0.00,,---,0.00,VWS V14.01,2013-08-27 07:11:00,
2013-08-27 02:21:00,73.7,69.9,29.74,SW,225,0.0,0.0,88,0.00,,---,0.00,VWS V14.01,2013-08-27 07:21:00,
2013-08-27 02:26:00,73.7,69.9,29.74,SW,225,0.0,0.0,88,0.00,,---,0.00,VWS V14.01,2013-08-27 07:26:00,
2013-08-27 02:31:00,73.5,69.7,29.74,SW,225,0.0,0.0,88,0.00,,---,0.00,VWS V14.01,2013-08-27 07:31:00,
2013-08-27 02:36:00,73.5,69.7,29.74,SW,226,0.0,0.0,88,0.00,,---,0.00,VWS V14.01,2013-08-27 07:36:00,
2013-08-27 02:46:00,73.5,69.7,29.74,SW,225,0.0,0.0,88,0.00,,---,0.00,VWS V14.01,2013-08-27 07:46:00,
2013-08-27 02:51:00,73.5,69.7,29.74,SW,224,0.0,0.0,88,0.00,,---,0.00,VWS V14.01,2013-08-27 07:51:00,
2013-08-27 02:56:00,73.5,69.7,29.74,SW,221,0.0,0.0,88,0.00,,---,0.00,VWS V14.01,2013-08-27 07:56:00,
2013-08-27 03:01:00,73.5,69.7,29.74,SW,218,0.0,0.0,88,0.00,,---,0.00,VWS V14.01,2013-08-27 08:01:00,
2013-08-27 03:11:00,73.9,69.8,29.74,SW,215,0.0,0.0,87,0.00,,---,0.00,VWS V14.01,2013-08-27 08:11:00,
2013-08-27 03:16:00,74.0,69.9,29.74,SW,223,0.0,0.0,87,0.00,,---,0.00,VWS V14.01,2013-08-27 08:16:00,
2013-08-27 03:21:00,74.2,69.8,29.74,SW,219,1.0,1.0,86,0.00,,---,0.00,VWS V14.01,2013-08-27 08:21:00,
2013-08-27 03:31:00,74.7,69.9,29.73,SW,222,0.0,1.0,85,0.00,,---,0.00,VWS V14.01,2013-08-27 08:31:00,
2013-08-27 03:41:00,74.9,69.4,29.73,SW,223,0.0,1.0,83,0.00,,---,0.00,VWS V14.01,2013-08-27 08:41:00,
2013-08-27 03:46:00,75.1,69.6,29.73,SW,225,0.0,1.0,83,0.00,,---,0.00,VWS V14.01,2013-08-27 08:46:00,
2013-08-27 03:51:00,75.3,69.8,29.73,SW,227,0.0,0.0,83,0.00,,---,0.00,VWS V14.01,2013-08-27 08:51:00,
2013-08-27 04:01:00,75.1,69.2,29.73,SW,224,0.0,0.0,82,0.00,,---,0.00,VWS V14.01,2013-08-27 09:01:00,
2013-08-27 04:06:00,75.1,69.2,29.73,SSW,205,0.0,1.0,82,0.00,,---,0.00,VWS V14.01,2013-08-27 09:06:00,
2013-08-27 04:11:00,75.1,69.2,29.73,SW,216,0.0,0.0,82,0.00,,---,0.00,VWS V14.01,2013-08-27 09:11:00,
2013-08-27 04:16:00,74.9,69.0,29.73,SSW,204,0.0,1.0,82,0.00,,---,0.00,VWS V14.01,2013-08-27 09:16:00,
2013-08-27 04:21:00,74.9,69.0,29.73,SW,219,0.0,1.0,82,0.00,,---,0.00,VWS V14.01,2013-08-27 09:21:00,
2013-08-27 04:26:00,74.7,68.8,29.72,SW,223,0.0,1.0,82,0.00,,---,0.00,VWS V14.01,2013-08-27 09:26:00,
2013-08-27 04:31:00,74.7,69.2,29.72,SW,221,0.0,1.0,83,0.00,,---,0.00,VWS V14.01,2013-08-27 09:31:00,
2013-08-27 04:41:00,74.6,69.1,29.72,SW,218,0.0,0.0,83,0.00,,---,0.00,VWS V14.01,2013-08-27 09:41:00,
2013-08-27 04:46:00,74.6,69.1,29.72,SW,217,1.0,1.0,83,0.00,,---,0.00,VWS V14.01,2013-08-27 09:46:00,
2013-08-27 04:51:00,74.4,68.9,29.72,SW,223,0.0,1.0,83,0.00,,---,0.00,VWS V14.01,2013-08-27 09:51:00,
2013-08-27 04:56:00,74.4,68.9,29.72,SW,225,1.0,1.0,83,0.00,,---,0.00,VWS V14.01,2013-08-27 09:56:00,
2013-08-27 05:06:00,74.2,68.7,29.71,SW,217,0.0,1.0,83,0.00,,---,0.00,VWS V14.01,2013-08-27 10:06:00,
2013-08-27 05:11:00,74.2,68.7,29.72,SW,229,0.0,0.0,83,0.00,,---,0.00,VWS V14.01,2013-08-27 10:11:00,
2013-08-27 05:16:00,74.0,68.5,29.71,SW,227,0.0,2.0,83,0.00,,---,0.00,VWS V14.01,2013-08-27 10:16:00,
2013-08-27 05:21:00,74.2,68.7,29.71,SW,224,0.0,1.0,83,0.00,,---,0.00,VWS V14.01,2013-08-27 10:21:00,
2013-08-27 05:31:00,74.2,68.7,29.72,SW,217,0.0,1.0,83,0.00,,---,0.00,VWS V14.01,2013-08-27 10:31:00,
2013-08-27 05:41:00,74.0,68.5,29.71,SW,221,0.0,0.0,83,0.00,,---,0.00,VWS V14.01,2013-08-27 10:41:00,
2013-08-27 05:46:00,74.0,68.5,29.72,SW,223,0.0,1.0,83,0.00,,---,0.00,VWS V14.01,2013-08-27 10:46:00,
2013-08-27 05:51:00,74.0,68.5,29.72,SW,223,0.0,1.0,83,0.00,,---,0.00,VWS V14.01,2013-08-27 10:51:00,
2013-08-27 05:56:00,74.0,68.5,29.72,SW,216,0.0,1.0,83,0.00,,---,0.00,VWS V14.01,2013-08-27 10:56:00,
2013-08-27 06:01:00,73.9,68.4,29.72,South,180,0.0,0.0,83,0.00,,---,0.00,VWS V14.01,2013-08-27 11:01:00,
2013-08-27 06:06:00,73.9,68.4,29.72,SW,233,0.0,1.0,83,0.00,,---,0.00,VWS V14.01,2013-08-27 11:06:00,
2013-08-27 06:11:00,73.9,68.4,29.72,SW,222,0.0,0.0,83,0.00,,---,0.00,VWS V14.01,2013-08-27 11:11:00,
2013-08-27 06:21:00,73.7,68.2,29.72,SW,218,0.0,0.0,83,0.00,,---,0.00,VWS V14.01,2013-08-27 11:21:00,
2013-08-27 06:26:00,73.7,68.2,29.72,SW,229,0.0,1.0,83,0.00,,---,0.00,VWS V14.01,2013-08-27 11:26:00,
2013-08-27 06:31:00,73.7,68.2,29.72,SW,214,0.0,1.0,83,0.00,,---,0.00,VWS V14.01,2013-08-27 11:31:00,
2013-08-27 06:36:00,73.7,68.2,29.72,SSW,202,0.0,1.0,83,0.00,,---,0.00,VWS V14.01,2013-08-27 11:36:00,
2013-08-27 06:41:00,73.7,68.2,29.72,SW,225,0.0,0.0,83,0.00,,---,0.00,VWS V14.01,2013-08-27 11:41:00,
2013-08-27 06:51:00,73.7,68.2,29.72,SW,225,0.0,0.0,83,0.00,,---,0.00,VWS V14.01,2013-08-27 11:51:00,
2013-08-27 07:01:00,73.5,68.0,29.72,SW,225,0.0,0.0,83,0.00,,---,0.00,VWS V14.01,2013-08-27 12:01:00,
2013-08-27 07:06:00,73.5,68.0,29.73,SW,224,0.0,0.0,83,0.00,,---,0.00,VWS V14.01,2013-08-27 12:06:00,
2013-08-27 07:11:00,73.7,68.2,29.73,SW,219,0.0,1.0,83,0.00,,---,0.00,VWS V14.01,2013-08-27 12:11:00,
2013-08-27 07:16:00,73.9,68.4,29.73,SW,223,0.0,1.0,83,0.00,,---,0.00,VWS V14.01,2013-08-27 12:16:00,
2013-08-27 07:21:00,74.0,68.2,29.74,SW,224,0.0,0.0,82,0.00,,---,0.00,VWS V14.01,2013-08-27 12:21:00,
2013-08-27 07:31:00,74.4,68.6,29.73,SW,224,0.0,0.0,82,0.00,,---,0.00,VWS V14.01,2013-08-27 12:31:00,
2013-08-27 07:36:00,74.7,68.5,29.73,SW,222,0.0,1.0,81,0.00,,---,0.00,VWS V14.01,2013-08-27 12:36:00,
2013-08-27 07:41:00,74.9,68.3,29.72,SW,229,0.0,1.0,80,0.00,,---,0.00,VWS V14.01,2013-08-27 12:41:00,
2013-08-27 07:46:00,75.3,68.7,29.72,SW,229,0.0,1.0,80,0.00,,---,0.00,VWS V14.01,2013-08-27 12:46:00,
2013-08-27 07:56:00,75.8,68.8,29.73,SW,229,0.0,2.0,79,0.00,,---,0.00,VWS V14.01,2013-08-27 12:56:00,
2013-08-27 08:01:00,76.1,69.1,29.72,SW,230,0.0,1.0,79,0.00,,---,0.00,VWS V14.01,2013-08-27 13:01:00,
2013-08-27 08:11:00,76.5,69.1,29.73,SW,234,0.0,1.0,78,0.00,,---,0.00,VWS V14.01,2013-08-27 13:11:00,
2013-08-27 08:16:00,76.8,69.1,29.73,WSW,247,1.0,2.0,77,0.00,,---,0.00,VWS V14.01,2013-08-27 13:16:00,
2013-08-27 08:21:00,77.0,69.2,29.72,WSW,248,1.0,2.0,77,0.00,,---,0.00,VWS V14.01,2013-08-27 13:21:00,
2013-08-27 08:26:00,77.4,69.2,29.73,SW,222,0.0,1.0,76,0.00,,---,0.00,VWS V14.01,2013-08-27 13:26:00,
2013-08-27 08:31:00,77.6,69.4,29.72,SW,220,0.0,2.0,76,0.00,,---,0.00,VWS V14.01,2013-08-27 13:31:00,
2013-08-27 08:36:00,77.7,69.5,29.72,SW,229,0.0,2.0,76,0.00,,---,0.00,VWS V14.01,2013-08-27 13:36:00,
2013-08-27 08:41:00,77.9,69.3,29.72,SW,230,0.0,2.0,75,0.00,,---,0.00,VWS V14.01,2013-08-27 13:41:00,
2013-08-27 08:46:00,78.1,69.5,29.72,SW,234,0.0,2.0,75,0.00,,---,0.00,VWS V14.01,2013-08-27 13:46:00,
2013-08-27 08:51:00,78.5,69.5,29.72,SW,223,0.0,1.0,74,0.00,,---,0.00,VWS V14.01,2013-08-27 13:51:00,
2013-08-27 08:56:00,78.6,69.6,29.72,WSW,249,0.0,2.0,74,0.00,,---,0.00,VWS V14.01,2013-08-27 13:56:00,
2013-08-27 09:01:00,78.8,69.8,29.72,West,270,1.0,2.0,74,0.00,,---,0.00,VWS V14.01,2013-08-27 14:01:00,
2013-08-27 09:06:00,79.0,70.0,29.72,WSW,240,1.0,2.0,74,0.00,,---,0.00,VWS V14.01,2013-08-27 14:06:00,
2013-08-27 09:11:00,79.2,69.8,29.72,WSW,249,2.0,2.0,73,0.00,,---,0.00,VWS V14.01,2013-08-27 14:11:00,
2013-08-27 09:21:00,79.8,70.0,29.72,SW,236,0.0,1.0,72,0.00,,---,0.00,VWS V14.01,2013-08-27 14:21:00,
2013-08-27 09:26:00,79.9,69.7,29.72,SW,235,0.0,1.0,71,0.00,,---,0.00,VWS V14.01,2013-08-27 14:26:00,
2013-08-27 09:31:00,80.1,69.9,29.72,SW,232,0.0,4.0,71,0.00,,---,0.00,VWS V14.01,2013-08-27 14:31:00,
2013-08-27 09:36:00,80.3,70.1,29.72,WSW,239,0.0,1.0,71,0.00,,---,0.00,VWS V14.01,2013-08-27 14:36:00,
2013-08-27 09:46:00,80.7,70.0,29.72,SW,227,0.0,2.0,70,0.00,,---,0.00,VWS V14.01,2013-08-27 14:46:00,
2013-08-27 09:51:00,80.9,70.2,29.72,WSW,237,0.0,2.0,70,0.00,,---,0.00,VWS V14.01,2013-08-27 14:51:00,
2013-08-27 09:56:00,81.1,70.4,29.72,SW,231,0.0,1.0,70,0.00,,---,0.00,VWS V14.01,2013-08-27 14:56:00,
2013-08-27 10:01:00,81.2,70.1,29.72,SW,235,0.0,3.0,69,0.00,,---,0.00,VWS V14.01,2013-08-27 15:01:00,
2013-08-27 10:06:00,81.6,70.4,29.72,WSW,241,0.0,3.0,69,0.00,,---,0.00,VWS V14.01,2013-08-27 15:06:00,
2013-08-27 10:16:00,82.2,71.0,29.73,WSW,250,0.0,1.0,69,0.00,,---,0.00,VWS V14.01,2013-08-27 15:16:00,
2013-08-27 10:21:00,82.6,71.4,29.74,West,261,0.0,2.0,69,0.00,,---,0.00,VWS V14.01,2013-08-27 15:21:00,
2013-08-27 10:26:00,83.0,70.9,29.74,WSW,240,0.0,1.0,67,0.00,,---,0.00,VWS V14.01,2013-08-27 15:26:00,
2013-08-27 10:31:00,83.2,70.7,29.73,WSW,242,0.0,2.0,66,0.00,,---,0.00,VWS V14.01,2013-08-27 15:31:00,
2013-08-27 10:41:00,83.4,70.9,29.73,WSW,249,0.0,2.0,66,0.00,,---,0.00,VWS V14.01,2013-08-27 15:41:00,
2013-08-27 10:46:00,83.6,71.9,29.74,WSW,243,0.0,1.0,68,0.00,,---,0.00,VWS V14.01,2013-08-27 15:46:00,
2013-08-27 10:51:00,84.0,71.4,29.74,WSW,252,0.0,2.0,66,0.00,,---,0.00,VWS V14.01,2013-08-27 15:51:00,
2013-08-27 10:56:00,84.0,71.4,29.74,WSW,243,0.0,1.0,66,0.00,,---,0.00,VWS V14.01,2013-08-27 15:56:00,
2013-08-27 11:06:00,84.3,71.7,29.74,WSW,257,0.0,1.0,66,0.00,,---,0.00,VWS V14.01,2013-08-27 16:06:00,
2013-08-27 11:11:00,84.5,71.4,29.74,WSW,242,0.0,2.0,65,0.00,,---,0.00,VWS V14.01,2013-08-27 16:11:00,
2013-08-27 11:16:00,84.7,72.1,29.73,SE,146,0.0,1.0,66,0.00,,---,0.00,VWS V14.01,2013-08-27 16:16:00,
2013-08-27 11:21:00,84.7,71.6,29.73,WSW,243,0.0,3.0,65,0.00,,---,0.00,VWS V14.01,2013-08-27 16:21:00,
2013-08-27 11:26:00,84.7,71.6,29.73,SW,225,3.0,3.0,65,0.00,,---,0.00,VWS V14.01,2013-08-27 16:26:00,
2013-08-27 11:31:00,84.9,71.8,29.73,West,263,1.0,3.0,65,0.00,,---,0.00,VWS V14.01,2013-08-27 16:31:00,
2013-08-27 11:36:00,84.9,71.8,29.73,West,263,0.0,1.0,65,0.00,,---,0.00,VWS V14.01,2013-08-27 16:36:00,
2013-08-27 11:46:00,85.3,71.8,29.73,West,259,0.0,2.0,64,0.00,,---,0.00,VWS V14.01,2013-08-27 16:46:00,
2013-08-27 11:51:00,85.7,72.6,29.73,SW,233,0.0,1.0,65,0.00,,---,0.00,VWS V14.01,2013-08-27 16:51:00,
2013-08-27 11:56:00,85.9,72.8,29.73,SW,232,0.0,2.0,65,0.00,,---,0.00,VWS V14.01,2013-08-27 16:56:00,
2013-08-27 12:06:00,85.9,72.8,29.73,SSW,210,0.0,1.0,65,0.00,,---,0.00,VWS V14.01,2013-08-27 17:06:00,
2013-08-27 12:16:00,86.1,71.1,29.73,SSW,210,0.0,1.0,61,0.00,,---,0.00,VWS V14.01,2013-08-27 17:16:00,
2013-08-27 12:21:00,86.1,71.6,29.73,SW,234,1.0,1.0,62,0.00,,---,0.00,VWS V14.01,2013-08-27 17:21:00,
2013-08-27 12:26:00,86.1,71.6,29.73,SW,227,0.0,1.0,62,0.00,,---,0.00,VWS V14.01,2013-08-27 17:26:00,
2013-08-27 12:36:00,86.5,72.4,29.72,SW,236,0.0,1.0,63,0.00,,---,0.00,VWS V14.01,2013-08-27 17:36:00,
2013-08-27 12:41:00,86.7,72.6,29.72,WSW,256,0.0,1.0,63,0.00,,---,0.00,VWS V14.01,2013-08-27 17:41:00,
2013-08-27 12:46:00,87.0,73.4,29.72,WNW,285,0.0,1.0,64,0.00,,---,0.00,VWS V14.01,2013-08-27 17:46:00,
2013-08-27 12:51:00,87.0,72.4,29.72,SW,225,0.0,1.0,62,0.00,,---,0.00,VWS V14.01,2013-08-27 17:51:00,
2013-08-27 13:01:00,87.2,73.1,29.72,WSW,254,0.0,1.0,63,0.00,,---,0.00,VWS V14.01,2013-08-27 18:01:00,
2013-08-27 13:06:00,87.4,73.7,29.72,SW,235,0.0,1.0,64,0.00,,---,0.00,VWS V14.01,2013-08-27 18:06:00,
2013-08-27 13:16:00,87.8,73.2,29.71,West,265,0.0,1.0,62,0.00,,---,0.00,VWS V14.01,2013-08-27 18:16:00,
2013-08-27 13:21:00,87.8,73.2,29.71,WSW,242,0.0,1.0,62,0.00,,---,0.00,VWS V14.01,2013-08-27 18:21:00,
2013-08-27 13:26:00,87.6,73.0,29.71,WSW,252,0.0,2.0,62,0.00,,---,0.00,VWS V14.01,2013-08-27 18:26:00,
2013-08-27 13:36:00,87.6,73.0,29.71,SW,229,0.0,2.0,62,0.00,,---,0.00,VWS V14.01,2013-08-27 18:36:00,
2013-08-27 13:41:00,87.8,73.6,29.70,WSW,243,0.0,1.0,63,0.00,,---,0.00,VWS V14.01,2013-08-27 18:41:00,
2013-08-27 13:46:00,87.8,72.7,29.71,SW,236,0.0,2.0,61,0.00,,---,0.00,VWS V14.01,2013-08-27 18:46:00,
2013-08-27 13:56:00,88.2,73.6,29.71,WSW,250,0.0,1.0,62,0.00,,---,0.00,VWS V14.01,2013-08-27 18:56:00,
2013-08-27 14:06:00,88.6,74.4,29.71,SW,223,0.0,1.0,63,0.00,,---,0.00,VWS V14.01,2013-08-27 19:06:00,
2013-08-27 14:11:00,88.6,73.4,29.70,SW,226,0.0,1.0,61,0.00,,---,0.00,VWS V14.01,2013-08-27 19:11:00,
2013-08-27 14:16:00,88.8,74.6,29.70,WSW,248,0.0,1.0,63,0.00,,---,0.00,VWS V14.01,2013-08-27 19:16:00,
2013-08-27 14:21:00,89.0,73.8,29.70,West,265,0.0,1.0,61,0.00,,---,0.00,VWS V14.01,2013-08-27 19:21:00,
2013-08-27 14:31:00,89.0,74.8,29.70,WSW,238,0.0,1.0,63,0.00,,---,0.00,VWS V14.01,2013-08-27 19:31:00,
2013-08-27 14:36:00,89.0,74.3,29.70,SW,217,0.0,2.0,62,0.00,,---,0.00,VWS V14.01,2013-08-27 19:36:00,
2013-08-27 14:41:00,89.0,75.2,29.70,WSW,257,0.0,1.0,64,0.00,,---,0.00,VWS V14.01,2013-08-27 19:41:00,
2013-08-27 14:46:00,89.3,75.1,29.70,West,268,0.0,1.0,63,0.00,,---,0.00,VWS V14.01,2013-08-27 19:46:00,
2013-08-27 14:51:00,89.5,75.7,29.70,WSW,250,0.0,2.0,64,0.00,,---,0.00,VWS V14.01,2013-08-27 19:51:00,
2013-08-27 15:01:00,89.5,74.8,29.70,WSW,247,0.0,1.0,62,0.00,,---,0.00,VWS V14.01,2013-08-27 20:01:00,
2013-08-27 15:06:00,89.7,75.9,29.70,WSW,242,0.0,2.0,64,0.00,,---,0.00,VWS V14.01,2013-08-27 20:06:00,
2013-08-27 15:11:00,89.7,75.4,29.70,WSW,251,0.0,1.0,63,0.00,,---,0.00,VWS V14.01,2013-08-27 20:11:00,
2013-08-27 15:16:00,89.7,75.4,29.70,WSW,252,0.0,1.0,63,0.00,,---,0.00,VWS V14.01,2013-08-27 20:16:00,
2013-08-27 15:21:00,89.9,75.1,29.70,WSW,241,0.0,1.0,62,0.00,,---,0.00,VWS V14.01,2013-08-27 20:21:00,
2013-08-27 15:26:00,90.1,75.8,29.70,WSW,252,0.0,1.0,63,0.00,,---,0.00,VWS V14.01,2013-08-27 20:26:00,
2013-08-27 15:31:00,90.1,75.3,29.70,WSW,254,0.0,1.0,62,0.00,,---,0.00,VWS V14.01,2013-08-27 20:31:00,
2013-08-27 15:41:00,90.3,76.0,29.69,WSW,246,0.0,1.0,63,0.00,,---,0.00,VWS V14.01,2013-08-27 20:41:00,
2013-08-27 15:46:00,90.5,76.7,29.69,West,263,0.0,1.0,64,0.00,,---,0.00,VWS V14.01,2013-08-27 20:46:00,
2013-08-27 15:51:00,90.7,76.4,29.69,West,261,0.0,1.0,63,0.00,,---,0.00,VWS V14.01,2013-08-27 20:51:00,
2013-08-27 15:56:00,90.5,75.7,29.69,WSW,246,0.0,1.0,62,0.00,,---,0.00,VWS V14.01,2013-08-27 20:56:00,
2013-08-27 16:06:00,90.5,76.2,29.69,West,262,0.0,1.0,63,0.00,,---,0.00,VWS V14.01,2013-08-27 21:06:00,
2013-08-27 16:11:00,90.5,76.7,29.69,WSW,257,0.0,1.0,64,0.00,,---,0.00,VWS V14.01,2013-08-27 21:11:00,
2013-08-27 16:16:00,90.7,76.4,29.69,West,261,0.0,0.0,63,0.00,,---,0.00,VWS V14.01,2013-08-27 21:16:00,
2013-08-27 16:21:00,91.0,76.7,29.69,West,269,0.0,1.0,63,0.00,,---,0.00,VWS V14.01,2013-08-27 21:21:00,
2013-08-27 16:26:00,91.0,77.6,29.69,WSW,257,0.0,1.0,65,0.00,,---,0.00,VWS V14.01,2013-08-27 21:26:00,
2013-08-27 16:51:00,90.7,76.8,29.70,West,261,0.0,1.0,64,0.00,,---,0.00,VWS V14.01,2013-08-27 21:51:00,
2013-08-27 16:56:00,90.7,76.8,29.69,WSW,253,1.0,1.0,64,0.00,,---,0.00,VWS V14.01,2013-08-27 21:56:00,
2013-08-27 17:01:00,90.7,76.8,29.69,WSW,246,0.0,1.0,64,0.00,,---,0.00,VWS V14.01,2013-08-27 22:01:00,
2013-08-27 17:06:00,90.7,76.8,29.69,WSW,257,0.0,0.0,64,0.00,,---,0.00,VWS V14.01,2013-08-27 22:06:00,
2013-08-27 17:11:00,90.5,76.2,29.69,West,263,0.0,1.0,63,0.00,,---,0.00,VWS V14.01,2013-08-27 22:11:00,
2013-08-27 17:16:00,90.5,76.7,29.69,WSW,252,0.0,1.0,64,0.00,,---,0.00,VWS V14.01,2013-08-27 22:16:00,
2013-08-27 17:21:00,90.5,76.7,29.69,West,261,0.0,1.0,64,0.00,,---,0.00,VWS V14.01,2013-08-27 22:21:00,
2013-08-27 17:26:00,90.5,77.1,29.70,West,261,0.0,1.0,65,0.00,,---,0.00,VWS V14.01,2013-08-27 22:26:00,
2013-08-27 17:31:00,90.3,76.9,29.70,West,265,1.0,1.0,65,0.00,,---,0.00,VWS V14.01,2013-08-27 22:31:00,
2013-08-27 17:36:00,90.3,77.4,29.70,West,265,0.0,1.0,66,0.00,,---,0.00,VWS V14.01,2013-08-27 22:36:00,
2013-08-27 17:41:00,90.5,78.1,29.70,West,265,0.0,1.0,67,0.00,,---,0.00,VWS V14.01,2013-08-27 22:41:00,
2013-08-27 17:51:00,90.3,76.9,29.70,West,267,0.0,1.0,65,0.00,,---,0.00,VWS V14.01,2013-08-27 22:51:00,
2013-08-27 17:56:00,90.1,77.2,29.70,West,261,0.0,1.0,66,0.00,,---,0.00,VWS V14.01,2013-08-27 22:56:00,
2013-08-27 18:06:00,89.7,76.8,29.70,West,261,0.0,0.0,66,0.00,,---,0.00,VWS V14.01,2013-08-27 23:06:00,
2013-08-27 18:11:00,89.7,77.7,29.70,West,260,0.0,0.0,68,0.00,,---,0.00,VWS V14.01,2013-08-27 23:11:00,
2013-08-27 18:16:00,89.7,77.7,29.70,West,263,0.0,0.0,68,0.00,,---,0.00,VWS V14.01,2013-08-27 23:16:00,
2013-08-27 18:26:00,89.3,77.4,29.70,West,265,0.0,0.0,68,0.00,,---,0.00,VWS V14.01,2013-08-27 23:26:00,
2013-08-27 18:36:00,89.0,77.9,29.70,West,265,0.0,0.0,70,0.00,,---,0.00,VWS V14.01,2013-08-27 23:36:00,
2013-08-27 18:46:00,89.0,78.8,29.70,West,265,0.0,0.0,72,0.00,,---,0.00,VWS V14.01,2013-08-27 23:46:00,
2013-08-27 18:56:00,89.5,78.9,29.70,West,265,0.0,0.0,71,0.00,,---,0.00,VWS V14.01,2013-08-27 23:56:00,
2013-08-27 19:01:00,89.0,78.4,29.70,West,265,0.0,0.0,71,0.00,,---,0.00,VWS V14.01,2013-08-28 00:01:00,
2013-08-27 19:06:00,88.6,78.0,29.70,West,265,0.0,0.0,71,0.00,,---,0.00,VWS V14.01,2013-08-28 00:06:00,
2013-08-27 19:11:00,87.8,76.8,29.70,West,265,0.0,0.0,70,0.00,,---,0.00,VWS V14.01,2013-08-28 00:11:00,
2013-08-27 19:21:00,86.7,77.0,29.70,West,265,0.0,0.0,73,0.00,,---,0.00,VWS V14.01,2013-08-28 00:21:00,
2013-08-27 19:26:00,86.3,76.6,29.71,West,266,0.0,0.0,73,0.00,,---,0.00,VWS V14.01,2013-08-28 00:26:00,
2013-08-27 19:36:00,85.9,76.7,29.71,West,266,0.0,0.0,74,0.00,,---,0.00,VWS V14.01,2013-08-28 00:36:00,
2013-08-27 19:41:00,85.5,76.3,29.71,West,266,0.0,0.0,74,0.00,,---,0.00,VWS V14.01,2013-08-28 00:41:00,
2013-08-27 19:46:00,85.1,76.3,29.71,West,266,0.0,0.0,75,0.00,,---,0.00,VWS V14.01,2013-08-28 00:46:00,
2013-08-27 19:51:00,84.5,76.1,29.71,West,266,0.0,0.0,76,0.00,,---,0.00,VWS V14.01,2013-08-28 00:51:00,
2013-08-27 19:56:00,84.0,76.0,29.71,West,266,0.0,0.0,77,0.00,,---,0.00,VWS V14.01,2013-08-28 00:56:00,
2013-08-27 20:06:00,82.6,75.4,29.71,West,266,0.0,0.0,79,0.00,,---,0.00,VWS V14.01,2013-08-28 01:06:00,
2013-08-27 20:11:00,82.0,74.8,29.72,West,266,0.0,0.0,79,0.00,,---,0.00,VWS V14.01,2013-08-28 01:11:00,
2013-08-27 20:16:00,81.6,74.8,29.72,West,266,0.0,0.0,80,0.00,,---,0.00,VWS V14.01,2013-08-28 01:16:00,
2013-08-27 20:26:00,81.1,75.1,29.72,West,266,0.0,0.0,82,0.00,,---,0.00,VWS V14.01,2013-08-28 01:26:00,
2013-08-27 20:36:00,80.3,74.3,29.72,West,266,0.0,0.0,82,0.00,,---,0.00,VWS V14.01,2013-08-28 01:36:00,
2013-08-27 20:41:00,79.9,74.3,29.73,West,266,0.0,0.0,83,0.00,,---,0.00,VWS V14.01,2013-08-28 01:41:00,
2013-08-27 20:46:00,79.6,74.0,29.73,West,266,0.0,0.0,83,0.00,,---,0.00,VWS V14.01,2013-08-28 01:46:00,
2013-08-27 20:56:00,79.0,73.8,29.73,West,266,0.0,0.0,84,0.00,,---,0.00,VWS V14.01,2013-08-28 01:56:00,
2013-08-27 21:06:00,78.6,73.7,29.74,West,266,0.0,0.0,85,0.00,,---,0.00,VWS V14.01,2013-08-28 02:06:00,
2013-08-27 21:11:00,78.6,73.7,29.74,West,266,0.0,0.0,85,0.00,,---,0.00,VWS V14.01,2013-08-28 02:11:00,
2013-08-27 21:16:00,78.5,74.0,29.74,West,272,0.0,0.0,86,0.00,,---,0.00,VWS V14.01,2013-08-28 02:16:00,
2013-08-27 21:26:00,77.9,73.4,29.75,West,272,0.0,0.0,86,0.00,,---,0.00,VWS V14.01,2013-08-28 02:26:00,
2013-08-27 21:31:00,77.9,73.7,29.75,West,272,0.0,0.0,87,0.00,,---,0.00,VWS V14.01,2013-08-28 02:31:00,
2013-08-27 21:41:00,77.9,73.7,29.75,West,272,0.0,0.0,87,0.00,,---,0.00,VWS V14.01,2013-08-28 02:41:00,
2013-08-27 21:46:00,77.9,74.1,29.75,West,272,0.0,0.0,88,0.00,,---,0.00,VWS V14.01,2013-08-28 02:46:00,
2013-08-27 21:51:00,77.7,73.9,29.75,West,272,0.0,0.0,88,0.00,,---,0.00,VWS V14.01,2013-08-28 02:51:00,
2013-08-27 21:56:00,77.6,73.8,29.75,West,272,0.0,0.0,88,0.00,,---,0.00,VWS V14.01,2013-08-28 02:56:00,
2013-08-27 22:06:00,77.2,73.4,29.75,West,272,0.0,0.0,88,0.00,,---,0.00,VWS V14.01,2013-08-28 03:06:00,
2013-08-27 22:11:00,77.0,73.2,29.75,West,272,0.0,0.0,88,0.00,,---,0.00,VWS V14.01,2013-08-28 03:11:00,
2013-08-27 22:16:00,76.8,73.0,29.75,West,272,0.0,0.0,88,0.00,,---,0.00,VWS V14.01,2013-08-28 03:16:00,
2013-08-27 22:21:00,76.7,72.9,29.75,West,272,0.0,0.0,88,0.00,,---,0.00,VWS V14.01,2013-08-28 03:21:00,
2013-08-27 22:51:00,76.1,73.0,29.76,West,272,0.0,0.0,90,0.00,,---,0.00,VWS V14.01,2013-08-28 03:51:00,
2013-08-27 22:56:00,76.1,73.0,29.76,West,272,0.0,0.0,90,0.00,,---,0.00,VWS V14.01,2013-08-28 03:56:00,
2013-08-27 23:01:00,76.1,73.0,29.76,West,272,0.0,0.0,90,0.00,,---,0.00,VWS V14.01,2013-08-28 04:01:00,
2013-08-27 23:06:00,76.0,72.9,29.76,West,272,0.0,0.0,90,0.00,,---,0.00,VWS V14.01,2013-08-28 04:06:00,
2013-08-27 23:16:00,76.0,72.9,29.76,West,272,0.0,0.0,90,0.00,,---,0.00,VWS V14.01,2013-08-28 04:16:00,
2013-08-27 23:21:00,75.8,72.7,29.76,West,272,0.0,0.0,90,0.00,,---,0.00,VWS V14.01,2013-08-28 04:21:00,
2013-08-27 23:31:00,75.6,72.8,29.76,West,272,0.0,0.0,91,0.00,,---,0.00,VWS V14.01,2013-08-28 04:31:00,
2013-08-27 23:41:00,75.3,72.5,29.76,West,272,0.0,0.0,91,0.00,,---,0.00,VWS V14.01,2013-08-28 04:41:00,
2013-08-27 23:46:00,75.3,72.5,29.76,West,272,0.0,0.0,91,0.00,,---,0.00,VWS V14.01,2013-08-28 04:46:00,
2013-08-27 23:51:00,75.1,72.3,29.76,West,272,0.0,0.0,91,0.00,,---,0.00,VWS V14.01,2013-08-28 04:51:00,